Previsão horária em Pleszew

Hoje, 3 Março, Quarta-feira

Tempo Temperatura Precipitação Vento Pressão Humidade
00:00 +3°C° 0 mm 0 m/s 763 mmHg 83%
01:00 +3°C° 0 mm 0 m/s 763 mmHg 83%
02:00 +3°C° 0 mm 0 m/s 762 mmHg 83%
03:00 +3°C° 0 mm 1 m/s 762 mmHg 83%
04:00 +3°C° 0 mm 1 m/s 761 mmHg 83%
05:00 +3°C° 0 mm 1 m/s 761 mmHg 83%
06:00 +3°C° 0 mm 1 m/s 761 mmHg 83%
07:00 +3°C° 0 mm 1 m/s 761 mmHg 82%
08:00 +5°C° 0 mm 1 m/s 760 mmHg 76%
09:00 +6°C° 0 mm 1 m/s 760 mmHg 70%
10:00 +7°C° 0 mm 2 m/s 760 mmHg 64%
11:00 +9°C° 0 mm 2 m/s 759 mmHg 60%
12:00 +10°C° 0 mm 2 m/s 759 mmHg 56%
13:00 +12°C° 0 mm 2 m/s 758 mmHg 52%
14:00 +12°C° 0 mm 2 m/s 758 mmHg 54%
15:00 +12°C° 0 mm 2 m/s 757 mmHg 55%
16:00 +13°C° 0 mm 2 m/s 756 mmHg 56%
17:00 +10°C° 0 mm 2 m/s 756 mmHg 61%
18:00 +9°C° 0 mm 3 m/s 755 mmHg 65%
19:00 +7°C° 0 mm 3 m/s 755 mmHg 69%
20:00 +7°C° 0 mm 3 m/s 755 mmHg 72%
21:00 +5°C° 0 mm 4 m/s 754 mmHg 75%
22:00 +5°C° 0 mm 4 m/s 753 mmHg 78%
23:00 +5°C° 0 mm 4 m/s 753 mmHg 79%

Amanhã, 4 Março, Quinta-feira

Tempo Temperatura Precipitação Vento Pressão Humidade
00:00 +5°C° 0 mm 4 m/s 753 mmHg 81%
01:00 +5°C° 0 mm 4 m/s 752 mmHg 82%
02:00 +3°C° 0 mm 5 m/s 752 mmHg 85%
03:00 +3°C° 0 mm 5 m/s 751 mmHg 87%
04:00 +3°C° 0 mm 5 m/s 750 mmHg 90%
05:00 +3°C° 0 mm 5 m/s 750 mmHg 91%
06:00 +3°C° 0 mm 5 m/s 750 mmHg 93%
07:00 +2°C° 0 mm 5 m/s 750 mmHg 94%
08:00 +3°C° 0 mm 6 m/s 749 mmHg 87%
09:00 +4°C° 0 mm 6 m/s 749 mmHg 80%
10:00 +5°C° 0 mm 7 m/s 749 mmHg 73%
11:00 +6°C° 0 mm 7 m/s 749 mmHg 69%
12:00 +8°C° 0 mm 6 m/s 749 mmHg 64%
13:00 +8°C° 0 mm 6 m/s 748 mmHg 59%
14:00 +7°C° 0 mm 6 m/s 748 mmHg 63%
15:00 +5°C° 0 mm 6 m/s 747 mmHg 67%
16:00 +3°C° 0 mm 5 m/s 747 mmHg 71%
17:00 +3°C° 0 mm 5 m/s 747 mmHg 72%
18:00 +3°C° 0 mm 4 m/s 748 mmHg 73%
19:00 +1°C° 0 mm 4 m/s 748 mmHg 74%
20:00 +1°C° 0.1 mm 4 m/s 748 mmHg 80%
21:00 0°C° 0.1 mm 4 m/s 748 mmHg 86%
22:00 0°C° 0.1 mm 4 m/s 749 mmHg 91%
23:00 -1°C° 0.1 mm 5 m/s 749 mmHg 88%

Depois de amanhã, 5 Março, Sexta-feira

Tempo Temperatura Precipitação Vento Pressão Humidade
00:00 -1°C° 0.1 mm 5 m/s 750 mmHg 85%
01:00 -2°C° 0.1 mm 5 m/s 750 mmHg 82%
02:00 -2°C° 0 mm 5 m/s 750 mmHg 82%
03:00 -3°C° 0 mm 4 m/s 750 mmHg 82%
04:00 -3°C° 0 mm 4 m/s 751 mmHg 82%
05:00 -3°C° 0 mm 4 m/s 751 mmHg 82%
06:00 -4°C° 0 mm 3 m/s 752 mmHg 82%
07:00 -4°C° 0 mm 3 m/s 752 mmHg 82%
08:00 -2°C° 0 mm 3 m/s 752 mmHg 73%
09:00 -2°C° 0 mm 4 m/s 753 mmHg 63%
10:00 0°C° 0 mm 4 m/s 753 mmHg 54%
11:00 0°C° 0 mm 4 m/s 753 mmHg 51%
12:00 +1°C° 0 mm 4 m/s 754 mmHg 48%
13:00 +1°C° 0 mm 4 m/s 754 mmHg 45%
14:00 +1°C° 0.1 mm 4 m/s 754 mmHg 45%
15:00 +1°C° 0.1 mm 4 m/s 754 mmHg 45%
16:00 +1°C° 0.1 mm 4 m/s 754 mmHg 44%
17:00 0°C° 0.1 mm 4 m/s 755 mmHg 50%
18:00 -1°C° 0.1 mm 4 m/s 755 mmHg 55%
19:00 -1°C° 0.1 mm 3 m/s 756 mmHg 61%
20:00 -1°C° 0 mm 3 m/s 756 mmHg 64%
21:00 -2°C° 0 mm 3 m/s 757 mmHg 67%
22:00 -3°C° 0 mm 4 m/s 757 mmHg 69%
23:00 -4°C° 0 mm 3 m/s 758 mmHg 71%

6 Março, Sábado

Tempo Temperatura Precipitação Vento Pressão Humidade
00:00 -4°C° 0 mm 3 m/s 758 mmHg 73%
01:00 -4°C° 0 mm 3 m/s 759 mmHg 74%
02:00 -4°C° 0 mm 3 m/s 759 mmHg 72%
03:00 -4°C° 0 mm 3 m/s 759 mmHg 71%
04:00 -4°C° 0 mm 3 m/s 759 mmHg 69%
05:00 -4°C° 0 mm 3 m/s 760 mmHg 68%
06:00 -4°C° 0 mm 3 m/s 760 mmHg 68%
07:00 -4°C° 0 mm 3 m/s 760 mmHg 67%
08:00 -3°C° 0 mm 4 m/s 761 mmHg 60%
09:00 -1°C° 0 mm 4 m/s 761 mmHg 54%
10:00 0°C° 0 mm 5 m/s 761 mmHg 47%
11:00 0°C° 0 mm 5 m/s 761 mmHg 44%
12:00 +1°C° 0 mm 5 m/s 761 mmHg 40%
13:00 +2°C° 0 mm 5 m/s 760 mmHg 37%
14:00 +1°C° 0 mm 5 m/s 760 mmHg 38%
15:00 +1°C° 0 mm 5 m/s 760 mmHg 38%
16:00 +1°C° 0 mm 5 m/s 759 mmHg 38%
17:00 0°C° 0 mm 5 m/s 759 mmHg 43%
18:00 -1°C° 0 mm 4 m/s 759 mmHg 48%
19:00 -2°C° 0 mm 4 m/s 758 mmHg 53%
20:00 -2°C° 0 mm 5 m/s 758 mmHg 53%
21:00 -2°C° 0 mm 5 m/s 758 mmHg 53%
22:00 -3°C° 0 mm 6 m/s 758 mmHg 53%
23:00 -3°C° 0 mm 6 m/s 757 mmHg 53%

7 Março, Domingo

Tempo Temperatura Precipitação Vento Pressão Humidade
00:00 -3°C° 0 mm 6 m/s 757 mmHg 53%
01:00 -3°C° 0 mm 7 m/s 756 mmHg 54%
02:00 -3°C° 0 mm 7 m/s 756 mmHg 56%
03:00 -3°C° 0 mm 7 m/s 755 mmHg 59%
04:00 -3°C° 0 mm 7 m/s 755 mmHg 62%
05:00 -3°C° 0 mm 7 m/s 754 mmHg 66%
06:00 -3°C° 0 mm 7 m/s 754 mmHg 71%
07:00 -3°C° 0 mm 7 m/s 754 mmHg 75%
08:00 -3°C° 0 mm 7 m/s 754 mmHg 75%
09:00 -3°C° 0 mm 7 m/s 754 mmHg 75%
10:00 -2°C° 0 mm 7 m/s 753 mmHg 75%
11:00 -2°C° 0 mm 7 m/s 753 mmHg 74%
12:00 -2°C° 0 mm 7 m/s 752 mmHg 72%
13:00 -2°C° 0 mm 7 m/s 752 mmHg 70%
14:00 -1°C° 0 mm 7 m/s 752 mmHg 69%
15:00 -1°C° 0 mm 7 m/s 751 mmHg 68%
16:00 -1°C° 0 mm 7 m/s 751 mmHg 66%
17:00 -2°C° 0 mm 6 m/s 751 mmHg 71%
18:00 -2°C° 0 mm 6 m/s 751 mmHg 75%
19:00 -2°C° 0 mm 5 m/s 751 mmHg 79%
20:00 -2°C° 0.3 mm 5 m/s 752 mmHg 81%
21:00 -4°C° 0.3 mm 5 m/s 752 mmHg 83%
22:00 -4°C° 0.3 mm 4 m/s 752 mmHg 84%
23:00 -4°C° 0 mm 3 m/s 753 mmHg 81%

8 Março, Segunda-feira

Tempo Temperatura Precipitação Vento Pressão Humidade
00:00 -4°C° 0 mm 3 m/s 753 mmHg 78%
01:00 -4°C° 0 mm 2 m/s 753 mmHg 75%
02:00 -4°C° 0 mm 2 m/s 753 mmHg 75%
03:00 -4°C° 0 mm 2 m/s 754 mmHg 76%
04:00 -5°C° 0 mm 3 m/s 754 mmHg 77%
05:00 -5°C° 0 mm 3 m/s 754 mmHg 72%
06:00 -5°C° 0 mm 3 m/s 755 mmHg 68%
07:00 -5°C° 0 mm 3 m/s 755 mmHg 64%
08:00 -4°C° 0 mm 3 m/s 756 mmHg 58%
09:00 -3°C° 0 mm 4 m/s 756 mmHg 52%
10:00 -2°C° 0 mm 4 m/s 757 mmHg 46%
11:00 -2°C° 0 mm 4 m/s 757 mmHg 45%
12:00 -1°C° 0 mm 4 m/s 757 mmHg 44%
13:00 -1°C° 0 mm 4 m/s 758 mmHg 43%
14:00 -1°C° 0 mm 4 m/s 758 mmHg 43%
15:00 -1°C° 0 mm 4 m/s 758 mmHg 43%
16:00 -1°C° 0 mm 4 m/s 758 mmHg 43%
17:00 -1°C° 0 mm 3 m/s 758 mmHg 48%
18:00 -2°C° 0 mm 2 m/s 759 mmHg 52%
19:00 -3°C° 0 mm 2 m/s 759 mmHg 56%
20:00 -4°C° 0 mm 2 m/s 759 mmHg 57%
21:00 -4°C° 0 mm 2 m/s 760 mmHg 57%
22:00 -2°C° 0 mm 1 m/s 760 mmHg 58%
23:00 -2°C° 0 mm 1 m/s 760 mmHg 57%
Mostrar mais

Necessitamos do seu Consentimento

A Meteoprog e os seus Fornecedores de Serviços podem armazenar e aceder a dados pessoais como cookies, identificadores do dispositivo ou outras tecnologias semelhantes existentes no seu dispositivo e processar estes dados para personalizar conteúdos e anúncios, assim como funcionalidades nas redes sociais e análise de tráfego.

  • Armazenar e/ou aceder a informações no seu dispositivo

    Os cookies, identificadores do dispositivo ou outras informações podem ser armazenados ou acedidos no seu dispositivo, para os fins acima indicados.

  • Anúncios e conteúdos personalizados, medição de anúncios e conteúdos, dados sobre o público-alvo e desenvolvimento de produtos

    Os anúncios e os conteúdos podem ser personalizados com base num perfil. Podem ser adicionados dados adicionais para uma maior personalização dos anúncios e dos conteúdos. A eficácia dos anúncios e dos conteúdos pode ser medida. Podem ser obtidas informações sobre o público que visualizou os anúncios e os conteúdos. Estes dados podem ser usados para desenvolver ou melhorar sistemas, softwares ou a experiência do utilizador.

Ao clicar em "Eu concordo”, permitirá o uso de cookies, identificadores do dispositivo e web beacons mencionados ou outras tecnologias semelhantes. As configurações do navegador do seu dispositivo podem ser alteradas.

Para certos fins, podem ser invocados interesses legítimos ao invés de consentimento. Pode ler mais informação sobre este assunto na nossa Política de Privacidade e Cookies.